KB2UZY Weather Reports


Display with metric or nautical units.
time (UTC)temp
F
wind
direction
speed
MPH
gust
MPH
rain 1hr
in
rain 24hr
in
rain mn
in
humidity
%
barometer
mb
20260504140120 64 271 8.0 19.0 0.00 0.00 0.00 40 1009.6
20260504081553 42 170 0.0 0.0 0.00 0.01 0.00 73 1009.6
20260504050113 41 217 0.0 0.0 0.00 0.01 0.00 66 1010.1
20260504044545 41 217 0.0 0.0 0.00 0.01 0.00 64 1010.1
20260504043041 0 217 0.0 0.0 0.00 0.01 0.00 1010.1
20260504041537 0 217 0.0 0.0 0.00 0.01 0.00 1010.1
20260504040034 42 217 0.0 0.0 0.00 0.01 0.00 64 1010.0
20260504034541 42 219 0.0 0.0 0.00 0.01 0.01 63 1010.0
20260504033032 42 220 0.0 0.0 0.00 0.01 0.01 61 1009.7
20260504031533 43 220 0.0 0.0 0.00 0.01 0.01 60 1009.6
20260504030038 43 220 0.0 0.0 0.00 0.01 0.01 58 1009.6
20260504024530 43 220 0.0 0.0 0.00 0.01 0.01 56 1009.7
20260504023030 44 220 0.0 0.0 0.00 0.01 0.01 55 1009.6
20260504021529 44 220 0.0 0.0 0.00 0.01 0.01 52 1009.6
20260504020030 45 220 0.0 0.0 0.00 0.01 0.01 51 1009.5
20260504014529 45 220 0.0 0.0 0.00 0.02 0.01 49 1009.2
20260504013028 46 235 0.0 2.0 0.00 0.02 0.01 48 1009.1
20260504011528 47 207 0.0 3.0 0.00 0.02 0.01 47 1009.0
20260504010027 48 269 0.0 0.0 0.00 0.02 0.01 45 1008.8
20260504004528 49 269 0.0 0.0 0.00 0.02 0.01 43 1008.5
20260504003026 50 286 0.0 0.0 0.00 0.02 0.01 42 1008.4
20260504001525 51 295 0.0 1.0 0.00 0.02 0.01 41 1008.0
20260504000025 51 295 0.0 4.0 0.00 0.02 0.01 39 1007.9
20260503234527 52 279 3.0 9.0 0.00 0.02 0.01 38 1007.6
20260503233024 53 252 0.0 6.0 0.00 0.02 0.01 39 1007.5
20260503231526 53 253 4.0 9.0 0.00 0.02 0.01 38 1007.4
20260503230028 53 305 1.0 5.0 0.00 0.02 0.01 40 1007.4
20260503224522 53 329 1.0 12.0 0.00 0.03 0.01 39 1007.4
20260503223025 53 311 2.0 11.0 0.00 0.03 0.01 40 1007.3
20260503221521 53 281 4.0 11.0 0.00 0.03 0.01 39 1007.3
20260503220027 53 282 5.0 10.0 0.00 0.03 0.01 40 1007.4
20260503214519 54 336 4.0 13.0 0.00 0.03 0.01 40 1007.4
20260503213019 54 224 3.0 12.0 0.00 0.03 0.01 41 1007.4
20260503211522 54 248 3.0 14.0 0.00 0.03 0.01 41 1007.4
20260503210018 54 264 5.0 11.0 0.00 0.03 0.01 42 1007.3
20260503204516 54 316 3.0 18.0 0.00 0.04 0.01 42 1007.1
20260503203022 54 259 2.0 12.0 0.00 0.04 0.01 41 1007.1
20260503201515 54 273 4.0 16.0 0.00 0.04 0.01 41 1007.0
20260503200015 54 268 5.0 16.0 0.00 0.06 0.01 41 1007.1
20260503194520 54 288 7.0 19.0 0.00 0.06 0.01 42 1007.0
20260503193014 54 207 7.0 17.0 0.00 0.06 0.01 40 1007.0
20260503191513 54 291 5.0 17.0 0.00 0.06 0.01 42 1007.0
20260503190015 54 311 3.0 16.0 0.00 0.09 0.01 43 1007.3
20260503184512 54 197 5.0 13.0 0.00 0.09 0.01 42 1007.1
20260503183011 54 245 4.0 13.0 0.00 0.09 0.01 44 1007.2
20260503181510 55 13 3.0 14.0 0.00 0.09 0.01 45 1007.3
20260503180024 56 213 4.0 14.0 0.00 0.11 0.01 43 1007.1
20260503174518 56 14 5.0 15.0 0.00 0.11 0.01 47 1007.1
20260503173007 55 254 5.0 22.0 0.00 0.11 0.01 48 1007.1
20260503171511 54 274 8.0 20.0 0.00 0.11 0.01 44 1006.9